Location: Grieser Field
(39.7333°N, 81.7975°W)
Time: 07:24:35
(UTC-04:00)

Meteor 2-1 Rocket - Visible Passes

Search period start: 23 August 2014 00:00
Search period end: 02 September 2014 00:00
Orbit: 831 x 906 km, 81.3° (Epoch: 22 August)

Date Brightness Start Highest point End Pass type
(mag) Time Alt. Az. Time Alt. Az. Time Alt. Az.
23 Aug 6.6 00:24:53 13° NE 00:24:53 13° NE 00:25:50 10° NE visible
23 Aug 5.9 02:07:17 30° NNW 02:07:17 30° NNW 02:10:17 10° N visible
24 Aug 6.6 00:18:26 13° NE 00:18:26 13° NE 00:19:19 10° NE visible
24 Aug 6.0 02:00:49 28° NNW 02:00:49 28° NNW 02:03:43 10° N visible
25 Aug 6.6 00:11:58 13° NE 00:11:58 13° NE 00:12:49 10° NE visible
25 Aug 6.0 01:54:22 27° NNW 01:54:22 27° NNW 01:57:09 10° N visible
26 Aug 6.6 00:05:30 13° NE 00:05:30 13° NE 00:06:19 10° NE visible
26 Aug 6.1 01:47:53 26° NNW 01:47:53 26° NNW 01:50:35 10° N visible
26 Aug 6.6 23:59:01 13° NE 23:59:01 13° NE 23:59:48 10° NE visible
27 Aug 6.2 01:41:24 26° NNW 01:41:24 26° NNW 01:44:00 10° N visible
27 Aug 6.6 23:52:31 13° NE 23:52:31 13° NE 23:53:18 10° NE visible
28 Aug 6.2 01:34:55 25° NNW 01:34:55 25° NNW 01:37:26 10° N visible
28 Aug 6.6 23:46:01 13° NE 23:46:01 13° NE 23:46:47 10° NE visible
29 Aug 6.3 01:28:25 24° NNW 01:28:25 24° NNW 01:30:52 10° N visible
29 Aug 6.6 23:39:31 13° NE 23:39:31 13° NE 23:40:17 10° NE visible
30 Aug 6.3 01:21:54 24° NNW 01:21:54 24° NNW 01:24:18 10° N visible
30 Aug 6.6 23:32:59 13° NE 23:32:59 13° NE 23:33:46 10° NE visible
31 Aug 6.3 01:15:23 23° NNW 01:15:23 23° NNW 01:17:44 10° N visible
31 Aug 6.6 23:26:28 13° NE 23:26:28 13° NE 23:27:15 10° NE visible
01 Sep 6.4 01:08:51 23° NNW 01:08:51 23° NNW 01:11:10 10° N visible
01 Sep 6.6 23:19:55 13° NE 23:19:55 13° NE 23:20:44 10° NE visible
